STARLINK-4512 (53398 NORAD) Tracking and Keplerian Element Data

This shows tracking and keplerian element data for the satellite.

Feedback or suggestion? Click here.




ElementValue
Catalog53398
NameSTARLINK-4512
Epoch Orbit1663
Epoch Day324.90484322
Epoch Year2022
RAAN132.5996
Inclination53.217
Eccentricity0.0001991
Argument of Perigee53.2665
Mean Anonmoly306.851
Mean Motion15.08831793
Decay Rate-2.75E-06
L11 53398U 22097L 22324.90484322 -.00000275 00000+0 81150-6 0 9998
L22 53398 53.2170 132.5996 0001991 53.2665 306.8510 15.08831793 16634



Live tracking and technical data element details for STARLINK-4512 (NORAD 53398). STARLINK-4512 can be tracked NOW for your location showing map with azimuth and elevation plus other details from your city location.







IsCatalogInMostPopularTable: catalog: 53398, numindb: 4
Update: records affected: 1



GetName: 53398 STARLINK-4512

Hit Count: updated at: Tue, 29 Nov 2022 02:12:06 GMT